Sparta, WI

11:23 PM CST on January 19, 2018 (GMT -0600)
Sparta-Fort McCoy

Weather History for KCMY - March, 2013

Change the Weather History Date:

Monday, March 18, 2013

  Actual Average Record
Temperature  
Mean Temperature 24 °F -  
Max Temperature 32 °F 42 °F 80 °F (2012)
Min Temperature 15 °F 23 °F -8 °F (1959)
Degree Days  
Heating Degree Days 42    
Moisture  
Dew Point 19 °F    
Average Humidity 84    
Maximum Humidity 100    
Minimum Humidity 68    
Precipitation  
Precipitation 0.08 in - - ()
Sea Level Pressure  
Sea Level Pressure 29.73 in    
Wind  
Wind Speed 5 mph (South)    
Max Wind Speed 16 mph    
Max Gust Speed 26 mph    
Visibility 5 miles    
Events Snow    
Averages and records for this station are not official NWS values.
T = Trace of Precipitation, MM = Missing Value Source: NWS Daily Summary

Daily Weather History Graph

Daily Weather History Graph

Search for Another Location

Airport or City:

Trip Planner

Search our weather history database for the weather conditions in past years. The results will help you decide how hot, cold, wet, or windy it might be!

Date:

Astronomy

Mar. 18, 2013 Rise Set
Actual Time 7:09 AM CDT 7:13 PM CDT
Civil Twilight 6:40 AM CDT 7:41 PM CDT
Nautical Twilight 6:06 AM CDT 8:15 PM CDT
Astronomical Twilight 5:32 AM CDT 8:50 PM CDT
Moon 10:57 AM CDT (3/18) 1:24 AM CDT (3/18)
Length of Visible Light 13h 01m
Length of Day
12h 03m
Waxing Crescent, 41% of the Moon is Illuminated
Mar 18
Waxing Crescent
Mar 19
First Quarter
Mar 27
Full
Apr 2
Last Quarter
Apr 10
New

Hourly Weather History & Observations

Time (CDT) Temp. Windchill Dew Point Humidity Pressure Visibility Wind Dir Wind Speed Gust Speed Precip Events Conditions
12:15 AM 23.0 °F 15.8 °F 15.8 °F 74% 29.98 in 10.0 mi East 5.8 mph - N/A   Clear
12:35 AM 23.0 °F 15.8 °F 15.8 °F 74% 29.97 in 10.0 mi ESE 5.8 mph - N/A   Clear
12:55 AM 21.2 °F 14.9 °F 15.8 °F 80% 29.97 in 10.0 mi ENE 4.6 mph - N/A   Clear
1:15 AM 21.2 °F 16.4 °F 14.0 °F 74% 29.96 in 10.0 mi ENE 3.5 mph - N/A   Clear
1:35 AM 21.2 °F - 15.8 °F 80% 29.96 in 10.0 mi Calm Calm - N/A   Clear
1:55 AM 19.4 °F - 14.0 °F 80% 29.95 in 10.0 mi Calm Calm - N/A   Clear
2:15 AM 19.4 °F 12.8 °F 14.0 °F 80% 29.93 in 10.0 mi ENE 4.6 mph - N/A   Clear
2:35 AM 19.4 °F 14.3 °F 14.0 °F 80% 29.92 in 10.0 mi ENE 3.5 mph - N/A   Clear
2:55 AM 19.4 °F 12.8 °F 14.0 °F 80% 29.90 in 10.0 mi ESE 4.6 mph - N/A   Clear
3:15 AM 19.4 °F 11.5 °F 14.0 °F 80% 29.89 in 10.0 mi East 5.8 mph - N/A   Clear
3:35 AM 19.4 °F 12.8 °F 14.0 °F 80% 29.88 in 10.0 mi East 4.6 mph - N/A   Clear
3:55 AM 19.4 °F 11.5 °F 14.0 °F 80% 29.86 in 10.0 mi East 5.8 mph - N/A   Clear
4:15 AM 19.4 °F 11.5 °F 14.0 °F 80% 29.85 in 10.0 mi East 5.8 mph - N/A   Clear
4:35 AM 19.4 °F 10.4 °F 14.0 °F 80% 29.83 in 10.0 mi East 6.9 mph - N/A   Clear
4:55 AM 19.4 °F 14.3 °F 15.8 °F 86% 29.83 in 10.0 mi East 3.5 mph - N/A   Scattered Clouds
5:15 AM 19.4 °F 12.8 °F 15.8 °F 86% 29.81 in 10.0 mi ENE 4.6 mph - N/A   Mostly Cloudy
5:35 AM 21.2 °F 14.9 °F 17.6 °F 86% 29.81 in 10.0 mi East 4.6 mph - N/A   Overcast
5:55 AM 21.2 °F 14.9 °F 17.6 °F 86% 29.80 in 10.0 mi East 4.6 mph - N/A   Overcast
6:15 AM 21.2 °F 11.7 °F 17.6 °F 86% 29.79 in 10.0 mi East 8.1 mph - N/A   Mostly Cloudy
6:35 AM 23.0 °F 14.7 °F 19.4 °F 86% 29.77 in 10.0 mi East 6.9 mph - N/A   Scattered Clouds
6:55 AM 23.0 °F - 19.4 °F 86% 29.77 in 10.0 mi Calm Calm - N/A   Clear
7:15 AM 23.0 °F 15.8 °F 19.4 °F 86% 29.75 in 5.0 mi East 5.8 mph - N/A Snow Light Snow
7:35 AM 23.0 °F 18.4 °F 19.4 °F 86% 29.75 in 0.5 mi East 3.5 mph - N/A Snow Light Snow
7:55 AM 23.0 °F 17.0 °F 21.2 °F 93% 29.74 in 1.2 mi East 4.6 mph - N/A Snow Light Snow
8:15 AM 23.0 °F 18.4 °F 21.2 °F 93% 29.74 in 1.2 mi East 3.5 mph - N/A Snow Light Snow
8:35 AM 24.8 °F 19.1 °F 23.0 °F 93% 29.74 in 1.2 mi ESE 4.6 mph - N/A Snow Light Snow
8:55 AM 24.8 °F - 23.0 °F 93% 29.73 in 0.8 mi Calm Calm - 0.01 in Snow Light Snow
9:15 AM 26.6 °F 21.2 °F 23.0 °F 86% 29.72 in 0.8 mi East 4.6 mph - 0.01 in Snow Light Snow
9:35 AM 26.6 °F 21.2 °F 23.0 °F 86% 29.71 in 0.8 mi East 4.6 mph - 0.02 in Snow Light Snow
9:55 AM 26.6 °F - 24.8 °F 93% 29.71 in 0.5 mi Calm Calm - 0.03 in Snow Snow
10:15 AM 26.6 °F - 24.8 °F 93% 29.70 in 1.5 mi Calm Calm - N/A Snow Light Snow
10:35 AM 26.6 °F 22.6 °F 24.8 °F 93% 29.69 in 1.0 mi East 3.5 mph - N/A Snow Light Snow
10:55 AM 28.4 °F 24.6 °F 24.8 °F 86% 29.68 in 1.5 mi SE 3.5 mph - N/A Snow Light Snow
11:15 AM 28.4 °F - 24.8 °F 86% 29.67 in 1.0 mi Calm Calm - N/A Snow Light Snow
11:35 AM 28.4 °F 24.6 °F 26.6 °F 93% 29.67 in 0.8 mi SE 3.5 mph - N/A Snow Light Snow
11:55 AM 28.4 °F - 26.6 °F 93% 29.66 in 0.8 mi Calm Calm - 0.01 in Snow Light Snow
12:15 PM 28.4 °F 23.3 °F 26.6 °F 93% 29.65 in 0.8 mi ESE 4.6 mph - N/A Snow Light Snow
12:35 PM 28.4 °F - 26.6 °F 93% 29.64 in 0.5 mi Calm Calm - 0.01 in Snow Snow
12:55 PM 30.2 °F - 28.4 °F 93% 29.63 in 0.5 mi Calm Calm - 0.01 in Snow Light Snow
1:15 PM 30.2 °F - 28.4 °F 93% 29.62 in 0.5 mi Calm Calm - 0.01 in Snow Snow
1:35 PM 30.2 °F - 28.4 °F 93% 29.60 in 0.5 mi Calm Calm - 0.02 in Snow Snow
1:55 PM 30.2 °F 26.7 °F 30.2 °F 100% 29.60 in 0.8 mi South 3.5 mph - 0.02 in Snow Light Snow
2:15 PM 32.0 °F 27.5 °F 28.4 °F 87% 29.58 in 1.8 mi South 4.6 mph - N/A Snow Light Snow
2:35 PM 32.0 °F 25.6 °F 28.4 °F 87% 29.58 in 2.0 mi South 6.9 mph - N/A Snow Light Snow
2:55 PM 32.0 °F 28.7 °F 28.4 °F 87% 29.57 in 7.0 mi SSW 3.5 mph - N/A Snow Light Snow
3:15 PM 32.0 °F 27.5 °F 28.4 °F 87% 29.57 in 3.0 mi West 4.6 mph - N/A   Overcast
3:35 PM 28.4 °F 17.0 °F 24.8 °F 86% 29.59 in 3.0 mi West 15.0 mph 23.0 mph N/A   Overcast
3:55 PM 26.6 °F 14.3 °F 21.2 °F 80% 29.61 in 5.0 mi West 16.1 mph 24.2 mph N/A   Haze
4:15 PM 26.6 °F 18.2 °F 21.2 °F 80% 29.62 in 3.0 mi West 8.1 mph 20.7 mph N/A Snow Light Snow
4:35 PM 23.0 °F 10.6 °F 19.4 °F 86% 29.63 in 2.5 mi West 13.8 mph 20.7 mph N/A Snow Light Snow
4:55 PM 23.0 °F 10.6 °F 19.4 °F 86% 29.64 in 1.8 mi West 13.8 mph 19.6 mph N/A Snow Light Snow
5:15 PM 23.0 °F 11.7 °F 17.6 °F 80% 29.64 in 4.0 mi West 11.5 mph 20.7 mph N/A Snow Light Snow
5:35 PM 23.0 °F 13.1 °F 15.8 °F 74% 29.65 in 10.0 mi West 9.2 mph 26.5 mph N/A   Mostly Cloudy
5:55 PM 23.0 °F 9.6 °F 14.0 °F 68% 29.65 in 10.0 mi West 16.1 mph 21.9 mph N/A   Mostly Cloudy
6:15 PM 23.0 °F 13.1 °F 14.0 °F 68% 29.66 in 10.0 mi West 9.2 mph 21.9 mph N/A   Scattered Clouds
6:35 PM 19.4 °F 6.6 °F 14.0 °F 80% 29.67 in 3.0 mi WSW 12.7 mph 19.6 mph N/A Snow Light Snow
6:55 PM 19.4 °F 9.5 °F 14.0 °F 80% 29.69 in 3.0 mi WSW 8.1 mph - N/A Snow Light Snow
7:15 PM 19.4 °F 9.5 °F 12.2 °F 74% 29.69 in 4.0 mi West 8.1 mph 21.9 mph N/A Snow Light Snow
7:35 PM 19.4 °F 10.4 °F 14.0 °F 80% 29.69 in 5.0 mi West 6.9 mph 17.3 mph N/A Snow Light Snow
7:55 PM 17.6 °F 5.0 °F 12.2 °F 79% 29.69 in 5.0 mi West 11.5 mph 18.4 mph N/A Snow Light Snow
8:15 PM 17.6 °F 7.3 °F 12.2 °F 79% 29.70 in 5.0 mi West 8.1 mph 20.7 mph N/A Snow Light Snow
8:35 PM 17.6 °F 6.4 °F 12.2 °F 79% 29.70 in 10.0 mi West 9.2 mph 23.0 mph N/A Snow Light Snow
8:55 PM 17.6 °F 5.0 °F 12.2 °F 79% 29.71 in 7.0 mi West 11.5 mph 17.3 mph N/A Snow Light Snow
9:15 PM 17.6 °F 5.0 °F 12.2 °F 79% 29.72 in 5.0 mi West 11.5 mph - N/A Snow Light Snow
9:35 PM 17.6 °F 5.7 °F 12.2 °F 79% 29.72 in 4.0 mi West 10.4 mph - N/A Snow Light Snow
9:55 PM 17.6 °F 5.0 °F 12.2 °F 79% 29.72 in 4.0 mi West 11.5 mph 20.7 mph N/A Snow Light Snow
10:15 PM 17.6 °F 3.7 °F 10.4 °F 73% 29.73 in 7.0 mi West 13.8 mph 23.0 mph N/A Snow Light Snow
10:55 PM 15.8 °F 2.7 °F 10.4 °F 79% 29.73 in 7.0 mi West 11.5 mph 25.3 mph N/A Snow Light Snow
11:15 PM 15.8 °F 2.1 °F 10.4 °F 79% 29.73 in 7.0 mi West 12.7 mph 24.2 mph N/A Snow Light Snow
11:35 PM 15.8 °F 1.4 °F 10.4 °F 79% 29.73 in 5.0 mi West 13.8 mph 23.0 mph N/A Snow Light Snow
11:55 PM 15.8 °F 3.4 °F 10.4 °F 79% 29.74 in 10.0 mi West 10.4 mph 24.2 mph N/A Snow Light Snow